Location: Newark
(7.0858°N, 171.3717°E)
Time: 05:57:27
(UTC+00:00)

Courier 1B - Pass Details

Date: 26 November 2020
Orbit: 962 x 1209 km, 28.3° (Epoch: 19 January)

Event Time Altitude Azimuth Distance (km) Brightness Sun altitude
Rises 06:53:05 0° 219° (SW) 3,631 11.6 -9.8°
Reaches altitude 10° 06:56:03 10° 208° (SSW) 2,685 10.6 -10.5°
Maximum altitude 07:01:34 30° 149° (SSE) 1,676 8.7 -11.8°
Enters shadow 07:06:20 13° 95° (E) 2,493 9.1 -12.9°
Drops below altitude 10° 07:07:13 10° 90° (E) 2,749 - -13.1°
Sets 07:10:17 0° 80° (E) 3,732 - -13.8°
